RH
61 61 62 67 72 73 75 74 76 83 83 83 85 82 82 82 83 86 87 89 91 90 88 88 88 86 87 91 95 98 97 96 94 92 89 85 82 78 75 73 71 74 76 77 79 75 70 66 62 57 54 48
59 61 61 65 68 75 85 87 87 89 87 87 89 87 86 88 88 87 87 88 90 90 89 89 90 88 86 86 89 92 92 93 94 95 92 89 86 83 82 77 73 76 78 79 80 77 69 62 59 55 51 47
50 55 60 66 70 80 95 96 92 92 92 91 92 93 93 93 90 87 87 86 85 86 87 88 89 89 87 85 85 84 84 85 90 93 91 91 88 84 85 81 78 79 79 80 78 75 68 60 59 55 51 48
44 50 58 68 78 87 94 95 92 91 92 92 92 94 94 92 89 87 87 86 83 82 83 84 85 85 84 83 81 79 78 77 81 85 86 88 86 85 89 88 85 83 82 82 76 71 68 63 61 58 53 50
44 52 58 65 80 90 92 94 95 93 93 92 90 93 94 92 89 87 88 87 84 82 78 77 77 77 76 75 74 75 75 73 74 75 77 80 80 82 89 90 89 86 84 84 78 72 69 64 62 60 57 53
40 50 60 64 71 85 93 95 96 93 93 94 92 92 92 92 91 90 90 88 85 83 79 76 74 73 73 72 73 75 73 71 71 71 72 73 74 78 84 87 88 87 85 84 80 74 70 65 61 60 59 56
36 42 54 63 69 79 87 90 94 94 94 96 94 93 92 91 91 91 91 90 87 84 81 80 79 76 75 76 78 75 71 71 70 69 67 66 68 73 78 81 82 84 84 82 79 72 69 66 61 59 60 59
34 36 42 56 73 82 78 77 85 90 94 96 94 93 93 91 91 90 88 89 88 86 84 84 85 83 80 82 82 76 72 72 69 66 64 61 62 64 68 70 72 75 75 75 74 70 67 65 62 61 62 61
32 34 36 45 68 82 77 78 85 86 90 94 93 93 92 90 90 91 90 90 89 87 88 88 89 89 86 85 81 76 75 75 70 67 65 64 62 60 59 60 62 63 64 67 69 68 66 64 61 60 61 60
31 32 34 37 50 64 67 73 80 79 81 85 87 91 92 91 90 91 91 91 90 90 90 89 90 90 89 88 83 78 78 77 75 71 67 66 65 63 60 59 58 58 59 62 64 66 66 65 62 58 59 58
32 32 34 35 36 43 51 62 69 67 72 79 84 89 90 90 91 92 92 91 90 91 90 89 90 89 89 90 85 81 80 80 79 77 71 67 65 65 65 62 61 60 60 61 62 62 63 64 62 59 58 58
34 34 35 37 35 35 39 50 61 67 75 83 86 85 84 87 90 90 90 91 90 89 90 90 90 89 90 90 85 82 83 82 82 81 77 71 68 67 66 66 65 65 63 63 63 62 62 63 63 62 61 62
33 35 37 39 40 37 34 38 49 63 78 87 89 86 82 84 88 90 89 90 91 89 88 90 90 90 90 89 86 83 82 83 83 83 80 76 74 73 71 69 67 68 68 67 67 66 65 64 64 65 66 67
32 35 38 41 44 42 37 36 43 51 61 71 80 81 77 78 84 90 90 89 89 88 88 89 90 91 91 91 88 84 82 82 82 82 81 78 77 79 78 77 74 72 72 71 71 70 69 68 66 66 67 68
32 34 39 43 49 51 44 39 42 44 46 53 65 72 73 75 78 82 85 86 86 86 88 91 91 91 92 92 90 87 82 81 82 81 82 81 80 81 81 81 82 80 78 76 75 74 74 73 71 70 69 70
35 36 40 44 49 56 53 46 42 43 46 49 58 66 68 66 68 74 80 84 87 86 88 91 92 92 92 92 92 90 85 81 80 81 81 81 80 80 80 80 81 81 80 79 79 79 78 76 75 74 74 73
36 38 40 44 52 62 63 57 49 45 47 49 52 61 68 70 75 82 85 86 89 89 90 92 91 91 92 92 93 91 88 84 82 81 82 81 79 78 78 77 77 77 77 76 77 78 78 78 77 76 75 74
38 39 39 43 57 68 67 61 57 51 47 47 50 57 66 74 81 89 94 92 92 89 89 92 92 91 92 92 93 92 90 88 85 82 81 79 77 75 75 74 72 71 71 71 72 73 74 75 76 77 77 76
38 40 40 42 50 60 63 61 59 57 52 48 47 52 60 68 75 83 90 92 93 92 91 93 94 93 93 92 93 93 91 91 87 82 78 76 75 72 70 70 69 69 68 68 69 69 70 70 71 73 74 75
38 40 41 43 45 52 60 64 64 63 61 55 49 49 55 64 71 74 78 82 87 91 92 94 95 95 95 94 94 94 92 91 89 84 80 78 75 72 68 66 65 65 65 67 68 69 68 68 68 69 71 72
37 40 41 43 46 52 57 62 69 70 66 64 59 53 51 55 63 69 74 79 84 88 90 93 95 97 97 97 96 95 94 93 92 90 86 82 78 74 69 66 64 64 64 64 65 65 66 66 68 69 71 71
33 39 42 43 45 52 55 56 63 67 66 67 69 64 58 53 54 60 67 74 81 85 88 91 95 99 99 99 98 96 95 94 94 94 92 88 84 79 75 73 73 72 69 65 63 62 62 63 65 66 68 70
26 36 44 45 44 46 51 53 55 60 65 69 71 73 70 64 58 55 57 65 73 77 82 87 92 96 97 98 99 98 96 95 94 96 96 94 91 88 83 81 82 80 75 71 67 63 60 59 60 60 62 64
20 29 42 48 48 45 45 51 55 59 71 77 75 76 77 74 71 65 60 61 64 67 76 83 85 88 90 93 98 99 97 96 96 96 97 97 96 94 91 88 86 85 82 78 73 67 62 58 57 57 57 58
19 22 32 41 47 46 44 49 54 59 71 78 78 80 79 77 78 75 72 69 63 63 72 80 83 84 85 86 92 97 97 97 97 97 98 98 97 97 95 94 92 90 89 84 77 72 68 63 59 56 56 55
26 24 27 34 41 44 43 45 48 53 60 67 74 84 84 80 81 82 80 78 75 72 71 75 79 80 81 82 87 92 96 98 99 98 98 99 99 98 98 98 96 96 96 92 83 77 75 70 64 60 57 55
27 28 29 33 37 42 44 42 42 46 51 56 62 75 82 79 82 85 84 83 84 83 79 75 75 75 78 80 82 85 89 94 98 99 98 98 97 97 98 99 99 98 99 97 90 85 79 73 69 64 57 55
21 24 26 29 33 38 42 44 43 43 45 50 52 59 67 70 74 80 84 86 86 86 85 83 81 79 79 80 78 78 78 81 87 93 97 98 98 98 97 98 99 99 99 99 96 92 85 78 74 66 60 61
21 21 22 23 26 29 33 37 42 43 44 47 49 52 56 60 64 69 77 84 86 86 87 87 87 84 83 82 79 76 75 75 78 83 88 91 94 96 97 97 99 100 99 99 98 95 90 84 79 72 70 71
24 23 23 23 23 23 25 27 32 38 41 41 44 50 54 58 59 60 68 76 80 84 87 89 91 89 86 85 84 82 79 76 75 77 81 83 84 86 89 92 96 99 100 99 99 98 94 90 85 80 78 76
27 26 25 24 24 24 24 24 25 28 33 35 36 42 48 53 54 53 57 65 71 75 80 86 90 94 94 91 87 86 85 81 77 76 78 79 80 81 83 84 87 93 99 100 97 97 97 95 92 87 83 80